W2IRT Weather Reports


Display with metric or nautical units.
time (UTC)temp
F
wind
direction
speed
MPH
gust
MPH
rain 1hr
in
rain 24hr
in
rain mn
in
humidity
%
barometer
mb
20260506131515 69 225 3.0 7.0 0.00 0.00 0.00 64 1008.7
20260506131015 69 202 4.0 11.0 0.00 0.00 0.00 65 1008.7
20260506130515 69 225 2.0 7.0 0.00 0.00 0.00 65 1008.6
20260506130015 68 202 3.0 9.0 0.00 0.00 0.00 66 1008.5
20260506125515 68 225 3.0 10.0 0.00 0.00 0.00 66 1008.4
20260506125015 68 225 2.0 6.0 0.00 0.00 0.00 66 1008.3
20260506124515 68 225 1.0 4.0 0.00 0.00 0.00 66 1008.2
20260506124015 68 225 2.0 7.0 0.00 0.00 0.00 66 1008.1
20260506123515 68 225 2.0 7.0 0.00 0.00 0.00 66 1008.2
20260506123015 68 225 1.0 7.0 0.00 0.00 0.00 66 1008.2
20260506122515 68 202 1.0 10.0 0.00 0.00 0.00 66 1008.2
20260506122015 68 202 3.0 10.0 0.00 0.00 0.00 66 1008.3
20260506121515 68 225 1.0 6.0 0.00 0.00 0.00 67 1008.5
20260506121015 68 225 3.0 10.0 0.00 0.00 0.00 66 1008.6
20260506120515 68 202 2.0 6.0 0.00 0.00 0.00 67 1008.7
20260506120015 68 225 2.0 6.0 0.00 0.00 0.00 67 1008.8
20260506115515 68 225 2.0 9.0 0.00 0.00 0.00 67 1008.8
20260506115015 68 202 2.0 12.0 0.00 0.00 0.00 67 1008.9
20260506114515 68 225 2.0 5.0 0.00 0.00 0.00 68 1008.8
20260506114015 68 225 3.0 7.0 0.00 0.00 0.00 67 1008.9
20260506113516 67 202 3.0 12.0 0.00 0.00 0.00 67 1008.9
20260506113015 67 225 2.0 8.0 0.00 0.00 0.00 68 1008.8
20260506112515 67 225 1.0 6.0 0.00 0.00 0.00 69 1008.8
20260506112015 67 202 2.0 7.0 0.00 0.00 0.00 69 1008.8
20260506111515 67 225 2.0 7.0 0.00 0.00 0.00 69 1008.9
20260506111015 67 225 2.0 7.0 0.00 0.00 0.00 69 1008.7
20260506110515 67 225 1.0 4.0 0.00 0.00 0.00 70 1008.7
20260506110015 66 225 1.0 4.0 0.00 0.00 0.00 70 1008.6
20260506105515 66 225 2.0 9.0 0.00 0.00 0.00 70 1008.5
20260506105015 66 225 1.0 6.0 0.00 0.00 0.00 70 1008.5
20260506104530 66 225 2.0 8.0 0.00 0.00 0.00 70 1008.5
20260506104015 66 225 2.0 8.0 0.00 0.00 0.00 70 1008.6
20260506103515 66 225 2.0 5.0 0.00 0.00 0.00 70 1008.7
20260506103017 66 202 2.0 5.0 0.00 0.00 0.00 70 1008.6
20260506102517 66 202 1.0 6.0 0.00 0.00 0.00 70 1008.5
20260506102017 66 202 1.0 4.0 0.00 0.00 0.00 71 1008.5
20260506101517 66 225 1.0 6.0 0.00 0.00 0.00 70 1008.5
20260506101017 66 0.0 3.0 0.00 0.00 0.00 70 1008.5
20260506100517 66 180 1.0 10.0 0.00 0.00 0.00 71 1008.4
20260506100017 66 225 1.0 4.0 0.00 0.00 0.00 71 1008.2
20260506095517 66 202 1.0 4.0 0.00 0.00 0.00 71 1008.2
20260506095017 66 202 1.0 4.0 0.00 0.00 0.00 72 1008.2
20260506094517 66 225 1.0 5.0 0.00 0.00 0.00 72 1008.3
20260506094017 66 0.0 3.0 0.00 0.00 0.00 72 1008.4
20260506093517 66 0.0 3.0 0.00 0.00 0.00 72 1008.4
20260506093017 66 225 1.0 6.0 0.00 0.00 0.00 72 1008.4
20260506092517 66 225 1.0 5.0 0.00 0.00 0.00 71 1008.4
20260506092018 66 0.0 3.0 0.00 0.00 0.00 71 1008.4
20260506091517 66 225 1.0 4.0 0.00 0.00 0.00 71 1008.4
20260506091017 66 0.0 3.0 0.00 0.00 0.00 71 1008.5
20260506090517 66 0.0 0.0 0.00 0.00 0.00 70 1008.5
20260506090017 66 0.0 3.0 0.00 0.00 0.00 70 1008.5
20260506085517 66 225 1.0 5.0 0.00 0.00 0.00 70 1008.6
20260506085017 66 0.0 4.0 0.00 0.00 0.00 70 1008.6
20260506084517 66 0.0 4.0 0.00 0.00 0.00 69 1008.6
20260506084017 66 0.0 3.0 0.00 0.00 0.00 69 1008.6
20260506083517 67 0.0 3.0 0.00 0.00 0.00 69 1008.6
20260506083017 67 0.0 0.0 0.00 0.00 0.00 69 1008.6
20260506082516 67 0.0 0.0 0.00 0.00 0.00 69 1008.5
20260506082016 67 0.0 2.0 0.00 0.00 0.00 69 1008.6
20260506081517 67 0.0 2.0 0.00 0.00 0.00 68 1008.6
20260506081017 67 225 1.0 4.0 0.00 0.00 0.00 68 1008.6
20260506080516 67 225 1.0 4.0 0.00 0.00 0.00 68 1008.6
20260506073517 68 202 1.0 5.0 0.00 0.00 0.00 66 1008.7
20260506073017 68 202 1.0 5.0 0.00 0.00 0.00 66 1008.7
20260506072516 68 202 1.0 4.0 0.00 0.00 0.00 65 1008.7
20260506072016 68 0.0 6.0 0.00 0.00 0.00 65 1008.7
20260506071517 68 202 1.0 5.0 0.00 0.00 0.00 65 1008.7
20260506071016 68 0.0 3.0 0.00 0.00 0.00 65 1008.8
20260506070516 68 0.0 0.0 0.00 0.00 0.00 64 1008.8
20260506062516 68 225 1.0 3.0 0.00 0.00 0.00 62 1008.9
20260506062016 68 202 1.0 5.0 0.00 0.00 0.00 62 1008.9
20260506061516 69 225 1.0 4.0 0.00 0.00 0.00 62 1008.9
20260506061016 69 225 1.0 5.0 0.00 0.00 0.00 61 1008.9
20260506060517 69 202 1.0 6.0 0.00 0.00 0.00 61 1008.8
20260506051016 70 0.0 4.0 0.00 0.00 0.00 57 1009.5
20260506050516 70 202 1.0 4.0 0.00 0.00 0.00 57 1009.6
20260506045016 70 0.0 2.0 0.00 0.00 0.00 56 1009.5
20260506044516 70 202 1.0 8.0 0.00 0.00 0.00 56 1009.5
20260506044016 70 225 1.0 4.0 0.00 0.00 0.00 56 1009.5
20260506043531 70 225 1.0 4.0 0.00 0.00 0.00 56 1009.5
20260506043016 70 202 2.0 8.0 0.00 0.00 0.00 55 1009.5
20260506042516 70 225 1.0 5.0 0.00 0.00 0.00 55 1009.5
20260506042016 70 202 1.0 7.0 0.00 0.00 0.00 55 1009.5
20260506041516 70 225 1.0 5.0 0.00 0.00 0.00 54 1009.4
20260506041016 71 0.0 11.0 0.00 0.00 0.00 54 1009.4
20260506040516 71 225 1.0 10.0 0.00 0.00 0.00 54 1009.4
20260506040016 71 225 1.0 4.0 0.00 0.00 0.00 54 1009.4
20260506035517 71 225 1.0 8.0 0.00 0.00 0.00 54 1009.4
20260506035017 71 202 2.0 8.0 0.00 0.00 0.00 53 1009.4
20260506034517 71 225 2.0 7.0 0.00 0.00 0.00 53 1009.4
20260506034017 71 225 2.0 6.0 0.00 0.00 0.00 53 1009.4
20260506033517 71 225 3.0 8.0 0.00 0.00 0.00 53 1009.4
20260506033016 71 225 2.0 6.0 0.00 0.00 0.00 53 1009.5
20260506032516 71 225 1.0 4.0 0.00 0.00 0.00 52 1009.3
20260506032016 72 225 2.0 10.0 0.00 0.00 0.00 52 1009.4
20260506031516 72 225 1.0 6.0 0.00 0.00 0.00 52 1009.4
20260506031016 72 225 2.0 9.0 0.00 0.00 0.00 51 1009.3
20260506030517 72 225 2.0 6.0 0.00 0.00 0.00 51 1009.3
20260506030017 72 225 1.0 5.0 0.00 0.00 0.00 51 1009.2
20260506025516 72 202 2.0 6.0 0.00 0.00 0.00 50 1009.1
20260506025017 73 225 1.0 7.0 0.00 0.00 0.00 50 1009.1
20260506024516 73 225 1.0 9.0 0.00 0.00 0.00 50 1009.1
20260506024016 73 202 1.0 6.0 0.00 0.00 0.00 49 1009.1
20260506023517 73 225 1.0 5.0 0.00 0.00 0.00 48 1009.2
20260506023016 74 225 1.0 4.0 0.00 0.00 0.00 48 1009.2
20260506022516 74 135 1.0 6.0 0.00 0.00 0.00 47 1009.2
20260506022016 74 135 1.0 9.0 0.00 0.00 0.00 46 1009.1
20260506021516 75 0.0 6.0 0.00 0.00 0.00 44 1009.0
20260506021016 75 202 1.0 5.0 0.00 0.00 0.00 44 1009.1
20260506020517 75 225 2.0 8.0 0.00 0.00 0.00 43 1008.9
20260506020016 75 0.0 3.0 0.00 0.00 0.00 42 1008.9
20260506015516 76 225 1.0 7.0 0.00 0.00 0.00 42 1008.9
20260506015016 76 202 1.0 9.0 0.00 0.00 0.00 41 1008.9
20260506014516 76 225 3.0 13.0 0.00 0.00 0.00 41 1008.8
20260506014017 76 202 2.0 12.0 0.00 0.00 0.00 40 1008.9
20260506013516 76 225 2.0 8.0 0.00 0.00 0.00 40 1008.8
20260506013031 76 225 1.0 7.0 0.00 0.00 0.00 39 1008.7
20260506012516 77 202 1.0 5.0 0.00 0.00 0.00 38 1008.6
20260506012016 77 225 1.0 4.0 0.00 0.00 0.00 38 1008.6
20260506011517 77 0.0 3.0 0.00 0.00 0.00 38 1008.5
20260506011016 77 0.0 4.0 0.00 0.00 0.00 37 1008.5
20260506010516 77 202 1.0 5.0 0.00 0.00 0.00 37 1008.4
20260506010016 77 202 2.0 5.0 0.00 0.00 0.00 36 1008.4
20260506005516 78 0.0 2.0 0.00 0.00 0.00 37 1008.4
20260506005016 78 0.0 2.0 0.00 0.00 0.00 36 1008.3
20260506004516 78 0.0 3.0 0.00 0.00 0.00 36 1008.2
20260506004016 78 0.0 3.0 0.00 0.00 0.00 35 1008.2
20260506003516 78 202 2.0 9.0 0.00 0.00 0.00 34 1008.1
20260506003016 78 202 1.0 4.0 0.00 0.00 0.00 34 1008.0
20260506002516 79 202 1.0 4.0 0.00 0.00 0.00 33 1008.0
20260506002016 79 225 1.0 4.0 0.00 0.00 0.00 32 1007.9
20260506001516 79 225 2.0 7.0 0.00 0.00 0.00 32 1007.8
20260506001016 79 225 3.0 8.0 0.00 0.00 0.00 31 1007.8
20260506000516 79 225 1.0 7.0 0.00 0.00 0.00 31 1007.9
20260506000016 80 225 1.0 7.0 0.00 0.00 0.00 30 1007.8
20260505235516 80 225 2.0 8.0 0.00 0.00 0.00 30 1007.8
20260505235016 80 225 2.0 9.0 0.00 0.00 0.00 30 1007.8
20260505234516 80 225 2.0 6.0 0.00 0.00 0.00 30 1007.7
20260505234016 80 225 3.0 7.0 0.00 0.00 0.00 29 1007.7
20260505233516 80 225 2.0 6.0 0.00 0.00 0.00 29 1007.6
20260505233016 80 202 1.0 6.0 0.00 0.00 0.00 29 1007.7
20260505232516 80 202 1.0 7.0 0.00 0.00 0.00 28 1007.6
20260505232016 81 225 1.0 5.0 0.00 0.00 0.00 28 1007.6
20260505231516 81 225 2.0 8.0 0.00 0.00 0.00 27 1007.5
20260505231016 81 225 2.0 8.0 0.00 0.00 0.00 27 1007.5
20260505230516 81 202 5.0 13.0 0.00 0.00 0.00 27 1007.3
20260505230016 81 225 2.0 10.0 0.00 0.00 0.00 27 1007.2
20260505225516 81 225 3.0 12.0 0.00 0.00 0.00 26 1007.3
20260505225016 82 225 5.0 14.0 0.00 0.00 0.00 26 1007.2
20260505224516 82 225 2.0 9.0 0.00 0.00 0.00 26 1007.1
20260505224016 82 202 4.0 11.0 0.00 0.00 0.00 25 1007.0
20260505223516 82 225 2.0 8.0 0.00 0.00 0.00 25 1007.1
20260505223016 82 225 5.0 15.0 0.00 0.00 0.00 25 1007.0
20260505222531 82 225 4.0 10.0 0.00 0.00 0.00 25 1007.0
20260505222016 82 202 5.0 13.0 0.00 0.00 0.00 25 1007.0
20260505221516 82 225 4.0 13.0 0.00 0.00 0.00 26 1006.9
20260505221016 82 225 2.0 11.0 0.00 0.00 0.00 25 1006.9
20260505220516 82 225 6.0 15.0 0.00 0.00 0.00 24 1006.9
20260505220016 83 202 5.0 16.0 0.00 0.00 0.00 25 1007.0
20260505215516 82 225 6.0 15.0 0.00 0.00 0.00 25 1006.8
20260505215016 82 202 4.0 9.0 0.00 0.00 0.00 25 1006.7
20260505214516 83 225 2.0 7.0 0.00 0.00 0.00 26 1006.7
20260505214016 83 225 2.0 7.0 0.00 0.00 0.00 26 1006.6
20260505213516 83 225 4.0 12.0 0.00 0.00 0.00 26 1006.5
20260505213016 84 225 5.0 13.0 0.00 0.00 0.00 26 1006.5
20260505212516 84 202 7.0 17.0 0.00 0.00 0.00 25 1006.5
20260505212016 84 202 5.0 14.0 0.00 0.00 0.00 25 1006.5
20260505211516 84 202 6.0 13.0 0.00 0.00 0.00 26 1006.5
20260505211016 84 202 4.0 11.0 0.00 0.00 0.00 27 1006.4
20260505210516 84 225 6.0 14.0 0.00 0.00 0.00 26 1006.4
20260505210016 84 225 8.0 21.0 0.00 0.00 0.00 26 1006.5
20260505205516 84 202 8.0 19.0 0.00 0.00 0.00 26 1006.5
20260505205015 84 202 9.0 23.0 0.00 0.00 0.00 26 1006.6
20260505204516 84 225 7.0 19.0 0.00 0.00 0.00 24 1006.4
20260505204016 84 202 7.0 15.0 0.00 0.00 0.00 24 1006.5
20260505203516 85 225 7.0 17.0 0.00 0.00 0.00 24 1006.7
20260505203016 85 225 4.0 13.0 0.00 0.00 0.00 26 1006.5
20260505202516 84 202 4.0 14.0 0.00 0.00 0.00 26 1006.6
20260505202016 84 202 4.0 15.0 0.00 0.00 0.00 26 1006.7
20260505201521 84 202 5.0 11.0 0.00 0.00 0.00 27 1006.6
20260505201015 84 202 4.0 12.0 0.00 0.00 0.00 27 1006.6
20260505200516 84 202 5.0 15.0 0.00 0.00 0.00 29 1006.6
20260505200015 84 202 6.0 15.0 0.00 0.00 0.00 26 1006.6
20260505195515 84 202 5.0 17.0 0.00 0.00 0.00 26 1006.7
20260505195015 84 225 8.0 21.0 0.00 0.00 0.00 27 1006.9
20260505194515 84 202 6.0 21.0 0.00 0.00 0.00 27 1006.9
20260505194015 84 202 6.0 16.0 0.00 0.00 0.00 26 1006.8
20260505193515 84 202 4.0 14.0 0.00 0.00 0.00 28 1007.0
20260505193015 84 202 3.0 10.0 0.00 0.00 0.00 29 1006.9
20260505192516 84 202 3.0 16.0 0.00 0.00 0.00 29 1007.2
20260505192031 84 202 6.0 15.0 0.00 0.00 0.00 27 1007.2
20260505191515 84 202 3.0 11.0 0.00 0.00 0.00 28 1007.2
20260505191016 84 202 4.0 10.0 0.00 0.00 0.00 29 1007.2
20260505190515 84 225 5.0 12.0 0.00 0.00 0.00 29 1007.3
20260505190015 84 225 3.0 10.0 0.00 0.00 0.00 29 1007.3
20260505185515 84 225 6.0 14.0 0.00 0.00 0.00 28 1007.4
20260505185015 84 202 3.0 10.0 0.00 0.00 0.00 28 1007.4
20260505184516 84 202 4.0 14.0 0.00 0.00 0.00 29 1007.6
20260505184015 84 225 5.0 12.0 0.00 0.00 0.00 29 1007.8
20260505183516 84 225 4.0 14.0 0.00 0.00 0.00 28 1007.9
20260505183015 84 202 5.0 13.0 0.00 0.00 0.00 30 1007.8
20260505182515 84 202 5.0 10.0 0.00 0.00 0.00 31 1007.8
20260505182015 84 225 4.0 11.0 0.00 0.00 0.00 31 1007.8
20260505181515 84 202 4.0 15.0 0.00 0.00 0.00 31 1007.8
20260505181015 84 202 4.0 14.0 0.00 0.00 0.00 30 1008.0
20260505180515 84 202 5.0 10.0 0.00 0.00 0.00 33 1007.9
20260505180015 84 225 4.0 10.0 0.00 0.00 0.00 32 1007.9
20260505175515 84 225 5.0 9.0 0.00 0.00 0.00 33 1008.0
20260505175015 84 225 6.0 17.0 0.00 0.00 0.00 32 1008.1
20260505174516 84 225 7.0 17.0 0.00 0.00 0.00 31 1008.1
20260505174015 84 225 3.0 10.0 0.00 0.00 0.00 32 1008.2
20260505173515 83 225 4.0 10.0 0.00 0.00 0.00 34 1008.2
20260505173015 83 202 6.0 13.0 0.00 0.00 0.00 32 1008.3
20260505172515 83 225 5.0 13.0 0.00 0.00 0.00 34 1008.4
20260505172015 83 202 5.0 10.0 0.00 0.00 0.00 33 1008.5
20260505171515 83 202 3.0 8.0 0.00 0.00 0.00 35 1008.6
20260505171015 83 225 4.0 12.0 0.00 0.00 0.00 34 1008.6
20260505170515 83 225 2.0 9.0 0.00 0.00 0.00 36 1008.6
20260505170015 83 225 4.0 9.0 0.00 0.00 0.00 35 1008.6
20260505165515 83 202 3.0 8.0 0.00 0.00 0.00 35 1008.7
20260505165015 82 247 3.0 8.0 0.00 0.00 0.00 37 1008.8
20260505164515 82 0.0 3.0 0.00 0.00 0.00 37 1008.9
20260505164015 82 225 2.0 9.0 0.00 0.00 0.00 39 1008.9
20260505163515 81 225 1.0 5.0 0.00 0.00 0.00 38 1009.0
20260505163015 80 225 1.0 5.0 0.00 0.00 0.00 38 1009.0
20260505162515 80 202 3.0 8.0 0.00 0.00 0.00 40 1009.2
20260505162015 79 225 2.0 12.0 0.00 0.00 0.00 39 1009.2
20260505161531 79 225 1.0 7.0 0.00 0.00 0.00 41 1009.2
20260505161015 79 225 2.0 7.0 0.00 0.00 0.00 41 1009.3
20260505160515 78 225 3.0 9.0 0.00 0.00 0.00 42 1009.4
20260505153015 76 0.0 4.0 0.00 0.00 0.00 45 1009.7
20260505152517 76 225 2.0 7.0 0.00 0.00 0.00 45 1009.9
20260505152017 76 225 2.0 7.0 0.00 0.00 0.00 45 1010.1
20260505151517 76 225 2.0 9.0 0.00 0.00 0.00 44 1010.0
20260505151017 75 225 2.0 7.0 0.00 0.00 0.00 45 1010.0
20260505150517 75 225 1.0 5.0 0.00 0.00 0.00 45 1009.9
20260505140517 71 225 3.0 6.0 0.00 0.00 0.00 53 1010.5